Location: Unspecified
(45.7810°N, 0.0000°E)
Time: 02:33:44
(UTC+00:00)

ISS - Pass Details

Date: 30 July 2019
Orbit: 410 x 421 km, 51.6° (Epoch: 22 August)

Event Time Altitude Azimuth Distance (km) Brightness Sun altitude
Rises 20:36:30 0° 297° (WNW) 2,375 1.9 -10.2°
Reaches altitude 10° 20:38:39 10° 304° (WNW) 1,507 0.6 -10.4°
Maximum altitude 20:41:57 47° 19° (NNE) 567 -3.0 -10.9°
Enters shadow 20:44:50 13° 93° (E) 1,354 -1.6 -11.3°
